Year,Month,Day,Hour,Minute,Value (Times are PST for temperature in C)
2017,10,15,00,00,10.30
2017,10,15,00,01,10.30
2017,10,15,00,02,10.30
2017,10,15,00,03,10.30
2017,10,15,00,04,10.30
2017,10,15,00,05,10.30
2017,10,15,00,06,10.30
2017,10,15,00,07,10.30
2017,10,15,00,08,10.30
2017,10,15,00,09,10.30
2017,10,15,00,10,10.30
2017,10,15,00,11,10.30
2017,10,15,00,12,10.20
2017,10,15,00,13,10.20
2017,10,15,00,14,10.20
2017,10,15,00,15,10.20
2017,10,15,00,16,10.20
2017,10,15,00,17,10.20
2017,10,15,00,18,10.20
2017,10,15,00,19,10.20
2017,10,15,00,20,10.20
2017,10,15,00,21,10.20
2017,10,15,00,22,10.20
2017,10,15,00,23,10.20
2017,10,15,00,24,10.20
2017,10,15,00,25,10.20
2017,10,15,00,26,10.20
2017,10,15,00,27,10.20
2017,10,15,00,28,10.20
2017,10,15,00,29,10.20
2017,10,15,00,30,10.20
2017,10,15,00,31,10.20
2017,10,15,00,32,10.20
2017,10,15,00,33,10.20
2017,10,15,00,34,10.20
2017,10,15,00,35,10.20
2017,10,15,00,36,10.20
2017,10,15,00,37,10.20
2017,10,15,00,38,10.20
2017,10,15,00,39,10.20
2017,10,15,00,40,10.20
2017,10,15,00,41,10.20
2017,10,15,00,42,10.20
2017,10,15,00,43,10.20
2017,10,15,00,44,10.20
2017,10,15,00,45,10.20
2017,10,15,00,46,10.20
2017,10,15,00,47,10.20
2017,10,15,00,48,10.20
2017,10,15,00,49,10.20
2017,10,15,00,50,10.20
2017,10,15,00,51,10.20
2017,10,15,00,52,10.20
2017,10,15,00,53,10.20
2017,10,15,00,54,10.20
2017,10,15,00,55,10.20
2017,10,15,00,56,10.20
2017,10,15,00,57,10.20
2017,10,15,00,58,10.20
2017,10,15,00,59,10.20
2017,10,15,01,00,10.20
2017,10,15,01,01,10.20
2017,10,15,01,02,10.20
2017,10,15,01,03,10.20
2017,10,15,01,04,10.20
2017,10,15,01,05,10.20
2017,10,15,01,06,10.20
2017,10,15,01,07,10.20
2017,10,15,01,08,10.20
2017,10,15,01,09,10.20
2017,10,15,01,10,10.20
2017,10,15,01,11,10.20
2017,10,15,01,12,10.20
2017,10,15,01,13,10.20
2017,10,15,01,14,10.20
2017,10,15,01,15,10.20
2017,10,15,01,16,10.20
2017,10,15,01,17,10.20
2017,10,15,01,18,10.20
2017,10,15,01,19,10.20
2017,10,15,01,20,10.20
2017,10,15,01,21,10.20
2017,10,15,01,22,10.20
2017,10,15,01,23,10.20
2017,10,15,01,24,10.20
2017,10,15,01,25,10.20
2017,10,15,01,26,10.20
2017,10,15,01,27,10.20
2017,10,15,01,28,10.20
2017,10,15,01,29,10.20
2017,10,15,01,30,10.20
2017,10,15,01,31,10.20
2017,10,15,01,32,10.20
2017,10,15,01,33,10.20
2017,10,15,01,34,10.20
2017,10,15,01,35,10.20
2017,10,15,01,36,10.20
2017,10,15,01,37,10.20
2017,10,15,01,38,10.20
2017,10,15,01,39,10.20
2017,10,15,01,40,10.20
2017,10,15,01,41,10.20
2017,10,15,01,42,10.20
2017,10,15,01,43,10.20
2017,10,15,01,44,10.20
2017,10,15,01,45,10.20
2017,10,15,01,46,10.20
2017,10,15,01,47,10.20
2017,10,15,01,48,10.20
2017,10,15,01,49,10.20
2017,10,15,01,50,10.20
2017,10,15,01,51,10.20
2017,10,15,01,52,10.20
2017,10,15,01,53,10.20
2017,10,15,01,54,10.20
2017,10,15,01,55,10.20
2017,10,15,01,56,10.20
2017,10,15,01,57,10.20
2017,10,15,01,58,10.20
2017,10,15,01,59,10.20
2017,10,15,02,00,10.20
2017,10,15,02,01,10.20
2017,10,15,02,02,10.20
2017,10,15,02,03,10.20
2017,10,15,02,04,10.20
2017,10,15,02,05,10.20
2017,10,15,02,06,10.20
2017,10,15,02,07,10.20
2017,10,15,02,08,10.20
2017,10,15,02,09,10.20
2017,10,15,02,10,10.20
2017,10,15,02,11,10.20
2017,10,15,02,12,10.20
2017,10,15,02,13,10.20
2017,10,15,02,14,10.20
2017,10,15,02,15,10.20
2017,10,15,02,16,10.20
2017,10,15,02,17,10.20
2017,10,15,02,18,10.20
2017,10,15,02,19,10.20
2017,10,15,02,20,10.20
2017,10,15,02,21,10.20
2017,10,15,02,22,10.20
2017,10,15,02,23,10.20
2017,10,15,02,24,10.20
2017,10,15,02,25,10.20
2017,10,15,02,26,10.20
2017,10,15,02,27,10.20
2017,10,15,02,28,10.20
2017,10,15,02,29,10.20
2017,10,15,02,30,10.20
2017,10,15,02,31,10.20
2017,10,15,02,32,10.20
2017,10,15,02,33,10.20
2017,10,15,02,34,10.20
2017,10,15,02,35,10.20
2017,10,15,02,36,10.20
2017,10,15,02,37,10.20
2017,10,15,02,38,10.20
2017,10,15,02,39,10.20
2017,10,15,02,40,10.20
2017,10,15,02,41,10.20
2017,10,15,02,42,10.20
2017,10,15,02,43,10.20
2017,10,15,02,44,10.20
2017,10,15,02,45,10.20
2017,10,15,02,46,10.20
2017,10,15,02,47,10.20
2017,10,15,02,48,10.20
2017,10,15,02,49,10.20
2017,10,15,02,50,10.20
2017,10,15,02,51,10.20
2017,10,15,02,52,10.20
2017,10,15,02,53,10.20
2017,10,15,02,54,10.20
2017,10,15,02,55,10.20
2017,10,15,02,56,10.20
2017,10,15,02,57,10.10
2017,10,15,02,58,10.10
2017,10,15,02,59,10.10
2017,10,15,03,00,10.10
2017,10,15,03,01,10.10
2017,10,15,03,02,10.10
2017,10,15,03,03,10.10
2017,10,15,03,04,10.10
2017,10,15,03,05,10.10
2017,10,15,03,06,10.10
2017,10,15,03,07,10.10
2017,10,15,03,08,10.10
2017,10,15,03,09,10.10
2017,10,15,03,10,10.10
2017,10,15,03,11,10.10
2017,10,15,03,12,10.10
2017,10,15,03,13,10.10
2017,10,15,03,14,10.10
2017,10,15,03,15,10.10
2017,10,15,03,16,10.10
2017,10,15,03,17,10.10
2017,10,15,03,18,10.10
2017,10,15,03,19,10.10
2017,10,15,03,20,10.00
2017,10,15,03,21,10.00
2017,10,15,03,22,10.00
2017,10,15,03,23,10.00
2017,10,15,03,24,10.00
2017,10,15,03,25,10.00
2017,10,15,03,26,10.00
2017,10,15,03,27,10.00
2017,10,15,03,28,10.00
2017,10,15,03,29,9.90
2017,10,15,03,30,9.90
2017,10,15,03,31,9.90
2017,10,15,03,32,9.90
2017,10,15,03,33,9.90
2017,10,15,03,34,9.90
2017,10,15,03,35,9.90
2017,10,15,03,36,9.90
2017,10,15,03,37,9.90
2017,10,15,03,38,9.90
2017,10,15,03,39,9.90
2017,10,15,03,40,9.80
2017,10,15,03,41,9.80
2017,10,15,03,42,9.80
2017,10,15,03,43,9.80
2017,10,15,03,44,9.80
2017,10,15,03,45,9.80
2017,10,15,03,46,9.80
2017,10,15,03,47,9.80
2017,10,15,03,48,9.70
2017,10,15,03,49,9.70
2017,10,15,03,50,9.70
2017,10,15,03,51,9.70
2017,10,15,03,52,9.70
2017,10,15,03,53,9.70
2017,10,15,03,54,9.70
2017,10,15,03,55,9.70
2017,10,15,03,56,9.70
2017,10,15,03,57,9.70
2017,10,15,03,58,9.70
2017,10,15,03,59,9.70
2017,10,15,04,00,9.60
2017,10,15,04,01,9.60
2017,10,15,04,02,9.60
2017,10,15,04,03,9.60
2017,10,15,04,04,9.60
2017,10,15,04,05,9.60
2017,10,15,04,06,9.60
2017,10,15,04,07,9.60
2017,10,15,04,08,9.60
2017,10,15,04,09,9.60
2017,10,15,04,10,9.60
2017,10,15,04,11,9.60
2017,10,15,04,12,9.60
2017,10,15,04,13,9.60
2017,10,15,04,14,9.60
2017,10,15,04,15,9.60
2017,10,15,04,16,9.60
2017,10,15,04,17,9.60
2017,10,15,04,18,9.60
2017,10,15,04,19,9.60
2017,10,15,04,20,9.60
2017,10,15,04,21,9.60
2017,10,15,04,22,9.60
2017,10,15,04,23,9.60
2017,10,15,04,24,9.60
2017,10,15,04,25,9.60
2017,10,15,04,26,9.60
2017,10,15,04,27,9.60
2017,10,15,04,28,9.60
2017,10,15,04,29,9.60
2017,10,15,04,30,9.60
2017,10,15,04,31,9.60
2017,10,15,04,32,9.70
2017,10,15,04,33,9.70
2017,10,15,04,34,9.70
2017,10,15,04,35,9.70
2017,10,15,04,36,9.70
2017,10,15,04,37,9.70
2017,10,15,04,38,9.70
2017,10,15,04,39,9.70
2017,10,15,04,40,9.70
2017,10,15,04,41,9.70
2017,10,15,04,42,9.70
2017,10,15,04,43,9.70
2017,10,15,04,44,9.70
2017,10,15,04,45,9.70
2017,10,15,04,46,9.70
2017,10,15,04,47,9.70
2017,10,15,04,48,9.70
2017,10,15,04,49,9.70
2017,10,15,04,50,9.70
2017,10,15,04,51,9.70
2017,10,15,04,52,9.70
2017,10,15,04,53,9.70
2017,10,15,04,54,9.70
2017,10,15,04,55,9.70
2017,10,15,04,56,9.70
2017,10,15,04,57,9.60
2017,10,15,04,58,9.60
2017,10,15,04,59,9.60
2017,10,15,05,00,9.60
2017,10,15,05,01,9.60
2017,10,15,05,02,9.60
2017,10,15,05,03,9.60
2017,10,15,05,04,9.60
2017,10,15,05,05,9.60
2017,10,15,05,06,9.60
2017,10,15,05,07,9.60
2017,10,15,05,08,9.50
2017,10,15,05,09,9.50
2017,10,15,05,10,9.50
2017,10,15,05,11,9.50
2017,10,15,05,12,9.50
2017,10,15,05,13,9.40
2017,10,15,05,14,9.40
2017,10,15,05,15,9.40
2017,10,15,05,16,9.40
2017,10,15,05,17,9.40
2017,10,15,05,18,9.30
2017,10,15,05,19,9.30
2017,10,15,05,20,9.30
2017,10,15,05,21,9.30
2017,10,15,05,22,9.30
2017,10,15,05,23,9.30
2017,10,15,05,24,9.30
2017,10,15,05,25,9.30
2017,10,15,05,26,9.30
2017,10,15,05,27,9.30
2017,10,15,05,28,9.20
2017,10,15,05,29,9.20
2017,10,15,05,30,9.20
2017,10,15,05,31,9.20
2017,10,15,05,32,9.20
2017,10,15,05,33,9.20
2017,10,15,05,34,9.20
2017,10,15,05,35,9.10
2017,10,15,05,36,9.10
2017,10,15,05,37,9.10
2017,10,15,05,38,9.10
2017,10,15,05,39,9.10
2017,10,15,05,40,9.00
2017,10,15,05,41,9.00
2017,10,15,05,42,9.00
2017,10,15,05,43,8.90
2017,10,15,05,44,8.90
2017,10,15,05,45,8.90
2017,10,15,05,46,8.90
2017,10,15,05,47,8.90
2017,10,15,05,48,8.90
2017,10,15,05,49,8.90
2017,10,15,05,50,8.80
2017,10,15,05,51,8.80
2017,10,15,05,52,8.80
2017,10,15,05,53,8.80
2017,10,15,05,54,8.80
2017,10,15,05,55,8.80
2017,10,15,05,56,8.80
2017,10,15,05,57,8.70
2017,10,15,05,58,8.70
2017,10,15,05,59,8.70
2017,10,15,06,00,8.70
2017,10,15,06,01,8.70
2017,10,15,06,02,8.70
2017,10,15,06,03,8.70
2017,10,15,06,04,8.70
2017,10,15,06,05,8.70
2017,10,15,06,06,8.70
2017,10,15,06,07,8.70
2017,10,15,06,08,8.70
2017,10,15,06,09,8.70
2017,10,15,06,10,8.70
2017,10,15,06,11,8.60
2017,10,15,06,12,8.60
2017,10,15,06,13,8.60
2017,10,15,06,14,8.60
2017,10,15,06,15,8.60
2017,10,15,06,16,8.60
2017,10,15,06,17,8.60
2017,10,15,06,18,8.60
2017,10,15,06,19,8.50
2017,10,15,06,20,8.50
2017,10,15,06,21,8.50
2017,10,15,06,22,8.50
2017,10,15,06,23,8.40
2017,10,15,06,24,8.40
2017,10,15,06,25,8.40
2017,10,15,06,26,8.40
2017,10,15,06,27,8.40
2017,10,15,06,28,8.40
2017,10,15,06,29,8.30
2017,10,15,06,30,8.30
2017,10,15,06,31,8.30
2017,10,15,06,32,8.30
2017,10,15,06,33,8.30
2017,10,15,06,34,8.20
2017,10,15,06,35,8.20
2017,10,15,06,36,8.20
2017,10,15,06,37,8.20
2017,10,15,06,38,8.20
2017,10,15,06,39,8.20
2017,10,15,06,40,8.10
2017,10,15,06,41,8.10
2017,10,15,06,42,8.10
2017,10,15,06,43,8.10
2017,10,15,06,44,8.10
2017,10,15,06,45,8.10
2017,10,15,06,46,8.10
2017,10,15,06,47,8.10
2017,10,15,06,48,8.00
2017,10,15,06,49,8.00
2017,10,15,06,50,8.00
2017,10,15,06,51,8.00
2017,10,15,06,52,8.00
2017,10,15,06,53,8.00
2017,10,15,06,54,8.00
2017,10,15,06,55,8.10
2017,10,15,06,56,8.10
2017,10,15,06,57,8.00
2017,10,15,06,58,8.00
2017,10,15,06,59,8.00
2017,10,15,07,00,8.00
2017,10,15,07,01,8.00
2017,10,15,07,02,8.00
2017,10,15,07,03,8.00
2017,10,15,07,04,8.00
2017,10,15,07,05,8.00
2017,10,15,07,06,8.00
2017,10,15,07,07,8.00
2017,10,15,07,08,8.00
2017,10,15,07,09,8.00
2017,10,15,07,10,7.90
2017,10,15,07,11,7.90
2017,10,15,07,12,7.90
2017,10,15,07,13,7.90
2017,10,15,07,14,7.90
2017,10,15,07,15,7.90
2017,10,15,07,16,7.90
2017,10,15,07,17,7.90
2017,10,15,07,18,7.90
2017,10,15,07,19,7.90
2017,10,15,07,20,7.90
2017,10,15,07,21,7.80
2017,10,15,07,22,7.80
2017,10,15,07,23,7.80
2017,10,15,07,24,7.80
2017,10,15,07,25,7.80
2017,10,15,07,26,7.80
2017,10,15,07,27,7.80
2017,10,15,07,28,7.80
2017,10,15,07,29,7.80
2017,10,15,07,30,7.70
2017,10,15,07,31,7.70
2017,10,15,07,32,7.70
2017,10,15,07,33,7.70
2017,10,15,07,34,7.70
2017,10,15,07,35,7.60
2017,10,15,07,36,7.60
2017,10,15,07,37,7.60
2017,10,15,07,38,7.60
2017,10,15,07,39,7.60
2017,10,15,07,40,7.60
2017,10,15,07,41,7.50
2017,10,15,07,42,7.50
2017,10,15,07,43,7.50
2017,10,15,07,44,7.50
2017,10,15,07,45,7.50
2017,10,15,07,46,7.50
2017,10,15,07,47,7.50
2017,10,15,07,48,7.40
2017,10,15,07,49,7.40
2017,10,15,07,50,7.40
2017,10,15,07,51,7.40
2017,10,15,07,52,7.40
2017,10,15,07,53,7.40
2017,10,15,07,54,7.40
2017,10,15,07,55,7.40
2017,10,15,07,56,7.40
2017,10,15,07,57,7.40
2017,10,15,07,58,7.40
2017,10,15,07,59,7.40
2017,10,15,08,00,7.40
2017,10,15,08,01,7.40
2017,10,15,08,02,7.40
2017,10,15,08,03,7.40
2017,10,15,08,04,7.40
2017,10,15,08,05,7.40
2017,10,15,08,06,7.40
2017,10,15,08,07,7.40
2017,10,15,08,08,7.40
2017,10,15,08,09,7.40
2017,10,15,08,10,7.40
2017,10,15,08,11,7.40
2017,10,15,08,12,7.40
2017,10,15,08,13,7.40
2017,10,15,08,14,7.40
2017,10,15,08,15,7.40
2017,10,15,08,16,7.40
2017,10,15,08,17,7.40
2017,10,15,08,18,7.40
2017,10,15,08,19,7.40
2017,10,15,08,20,7.40
2017,10,15,08,21,7.40
2017,10,15,08,22,7.50
2017,10,15,08,23,7.50
2017,10,15,08,24,7.50
2017,10,15,08,25,7.50
2017,10,15,08,26,7.50
2017,10,15,08,27,7.60
2017,10,15,08,28,7.60
2017,10,15,08,29,7.60
2017,10,15,08,30,7.60
2017,10,15,08,31,7.60
2017,10,15,08,32,7.60
2017,10,15,08,33,7.70
2017,10,15,08,34,7.70
2017,10,15,08,35,7.70
2017,10,15,08,36,7.70
2017,10,15,08,37,7.70
2017,10,15,08,38,7.80
2017,10,15,08,39,7.80
2017,10,15,08,40,7.80
2017,10,15,08,41,7.90
2017,10,15,08,42,7.90
2017,10,15,08,43,7.90
2017,10,15,08,44,8.00
2017,10,15,08,45,8.00
2017,10,15,08,46,8.10
2017,10,15,08,47,8.10
2017,10,15,08,48,8.20
2017,10,15,08,49,8.20
2017,10,15,08,50,8.30
2017,10,15,08,51,8.30
2017,10,15,08,52,8.30
2017,10,15,08,53,8.40
2017,10,15,08,54,8.40
2017,10,15,08,55,8.40
2017,10,15,08,56,8.50
2017,10,15,08,57,8.60
2017,10,15,08,58,8.60
2017,10,15,08,59,8.70
2017,10,15,09,00,8.70
2017,10,15,09,01,8.80
2017,10,15,09,02,8.80
2017,10,15,09,03,8.80
2017,10,15,09,04,8.90
2017,10,15,09,05,8.90
2017,10,15,09,06,9.00
2017,10,15,09,07,9.00
2017,10,15,09,08,9.00
2017,10,15,09,09,9.10
2017,10,15,09,10,9.10
2017,10,15,09,11,9.20
2017,10,15,09,12,9.20
2017,10,15,09,13,9.30
2017,10,15,09,14,9.30
2017,10,15,09,15,9.30
2017,10,15,09,16,9.40
2017,10,15,09,17,9.40
2017,10,15,09,18,9.40
2017,10,15,09,19,9.50
2017,10,15,09,20,9.50
2017,10,15,09,21,9.60
2017,10,15,09,22,9.60
2017,10,15,09,23,9.70
2017,10,15,09,24,9.70
2017,10,15,09,25,9.70
2017,10,15,09,26,9.80
2017,10,15,09,27,9.80
2017,10,15,09,28,9.90
2017,10,15,09,29,9.90
2017,10,15,09,30,9.90
2017,10,15,09,31,10.00
2017,10,15,09,32,10.00
2017,10,15,09,33,10.10
2017,10,15,09,34,10.10
2017,10,15,09,35,10.20
2017,10,15,09,36,10.20
2017,10,15,09,37,10.20
2017,10,15,09,38,10.20
2017,10,15,09,39,10.30
2017,10,15,09,40,10.30
2017,10,15,09,41,10.30
2017,10,15,09,42,10.30
2017,10,15,09,43,10.40
2017,10,15,09,44,10.40
2017,10,15,09,45,10.40
2017,10,15,09,46,10.50
2017,10,15,09,47,10.50
2017,10,15,09,48,10.50
2017,10,15,09,49,10.60
2017,10,15,09,50,10.60
2017,10,15,09,51,10.70
2017,10,15,09,52,10.70
2017,10,15,09,53,10.70
2017,10,15,09,54,10.80
2017,10,15,09,55,10.80
2017,10,15,09,56,10.80
2017,10,15,09,57,10.80
2017,10,15,09,58,10.90
2017,10,15,09,59,10.90
2017,10,15,10,00,10.90
2017,10,15,10,01,10.90
2017,10,15,10,02,11.00
2017,10,15,10,03,11.00
2017,10,15,10,04,11.00
2017,10,15,10,05,11.10
2017,10,15,10,06,11.10
2017,10,15,10,07,11.10
2017,10,15,10,08,11.10
2017,10,15,10,09,11.20
2017,10,15,10,10,11.20
2017,10,15,10,11,11.20
2017,10,15,10,12,11.20
2017,10,15,10,13,11.30
2017,10,15,10,14,11.30
2017,10,15,10,15,11.30
2017,10,15,10,16,11.30
2017,10,15,10,17,11.40
2017,10,15,10,18,11.40
2017,10,15,10,19,11.40
2017,10,15,10,20,11.40
2017,10,15,10,21,11.40
2017,10,15,10,22,11.40
2017,10,15,10,23,11.40
2017,10,15,10,24,11.40
2017,10,15,10,25,11.50
2017,10,15,10,26,11.50
2017,10,15,10,27,11.50
2017,10,15,10,28,11.50
2017,10,15,10,29,11.50
2017,10,15,10,30,11.50
2017,10,15,10,31,11.50
2017,10,15,10,32,11.60
2017,10,15,10,33,11.60
2017,10,15,10,34,11.60
2017,10,15,10,35,11.60
2017,10,15,10,36,11.60
2017,10,15,10,37,11.70
2017,10,15,10,38,11.70
2017,10,15,10,39,11.70
2017,10,15,10,40,11.70
2017,10,15,10,41,11.70
2017,10,15,10,42,11.70
2017,10,15,10,43,11.80
2017,10,15,10,44,11.80
2017,10,15,10,45,11.80
2017,10,15,10,46,11.80
2017,10,15,10,47,11.80
2017,10,15,10,48,11.80
2017,10,15,10,49,11.80
2017,10,15,10,50,11.80
2017,10,15,10,51,11.80
2017,10,15,10,52,11.80
2017,10,15,10,53,11.80
2017,10,15,10,54,11.80
2017,10,15,10,55,11.90
2017,10,15,10,56,11.90
2017,10,15,10,57,11.90
2017,10,15,10,58,11.90
2017,10,15,10,59,11.90
2017,10,15,11,00,11.90
2017,10,15,11,01,12.00
2017,10,15,11,02,12.00
2017,10,15,11,03,12.10
2017,10,15,11,04,12.10
2017,10,15,11,05,12.10
2017,10,15,11,06,12.10
2017,10,15,11,07,12.10
2017,10,15,11,08,12.10
2017,10,15,11,09,12.10
2017,10,15,11,10,12.20
2017,10,15,11,11,12.20
2017,10,15,11,12,12.20
2017,10,15,11,13,12.20
2017,10,15,11,14,12.20
2017,10,15,11,15,12.20
2017,10,15,11,16,12.20
2017,10,15,11,17,12.20
2017,10,15,11,18,12.20
2017,10,15,11,19,12.20
2017,10,15,11,20,12.20
2017,10,15,11,21,12.20
2017,10,15,11,22,12.20
2017,10,15,11,23,12.20
2017,10,15,11,24,12.20
2017,10,15,11,25,12.30
2017,10,15,11,26,12.30
2017,10,15,11,27,12.30
2017,10,15,11,28,12.30
2017,10,15,11,29,12.40
2017,10,15,11,30,12.40
2017,10,15,11,31,12.40
2017,10,15,11,32,12.50
2017,10,15,11,33,12.50
2017,10,15,11,34,12.60
2017,10,15,11,35,12.60
2017,10,15,11,36,12.60
2017,10,15,11,37,12.60
2017,10,15,11,38,12.70
2017,10,15,11,39,12.70
2017,10,15,11,40,12.70
2017,10,15,11,41,12.70
2017,10,15,11,42,12.80
2017,10,15,11,43,12.80
2017,10,15,11,44,12.80
2017,10,15,11,45,12.80
2017,10,15,11,46,12.80
2017,10,15,11,47,12.90
2017,10,15,11,48,12.90
2017,10,15,11,49,12.90
2017,10,15,11,50,12.90
2017,10,15,11,51,12.90
2017,10,15,11,52,13.00
2017,10,15,11,53,13.00
2017,10,15,11,54,13.00
2017,10,15,11,55,13.00
2017,10,15,11,56,13.00
2017,10,15,11,57,13.10
2017,10,15,11,58,13.10
2017,10,15,11,59,13.10
2017,10,15,12,00,13.10
2017,10,15,12,01,13.10
2017,10,15,12,02,13.10
2017,10,15,12,03,13.20
2017,10,15,12,04,13.20
2017,10,15,12,05,13.20
2017,10,15,12,06,13.20
2017,10,15,12,07,13.20
2017,10,15,12,08,13.20
2017,10,15,12,09,13.20
2017,10,15,12,10,13.20
2017,10,15,12,11,13.20
2017,10,15,12,12,13.20
2017,10,15,12,13,13.20
2017,10,15,12,14,13.20
2017,10,15,12,15,13.20
2017,10,15,12,16,13.20
2017,10,15,12,17,13.20
2017,10,15,12,18,13.20
2017,10,15,12,19,13.20
2017,10,15,12,20,13.30
2017,10,15,12,21,13.30
2017,10,15,12,22,13.30
2017,10,15,12,23,13.30
2017,10,15,12,24,13.40
2017,10,15,12,25,13.40
2017,10,15,12,26,13.40
2017,10,15,12,27,13.40
2017,10,15,12,28,13.40
2017,10,15,12,29,13.40
2017,10,15,12,30,13.40
2017,10,15,12,31,13.40
2017,10,15,12,32,13.40
2017,10,15,12,33,13.40
2017,10,15,12,34,13.50
2017,10,15,12,35,13.50
2017,10,15,12,36,13.50
2017,10,15,12,37,13.60
2017,10,15,12,38,13.60
2017,10,15,12,39,13.60
2017,10,15,12,40,13.60
2017,10,15,12,41,13.60
2017,10,15,12,42,13.60
2017,10,15,12,43,13.60
2017,10,15,12,44,13.50
2017,10,15,12,45,13.50
2017,10,15,12,46,13.40
2017,10,15,12,47,13.40
2017,10,15,12,48,13.30
2017,10,15,12,49,13.20
2017,10,15,12,50,13.10
2017,10,15,12,51,13.10
2017,10,15,12,52,13.10
2017,10,15,12,53,13.10
2017,10,15,12,54,13.10
2017,10,15,12,55,13.10
2017,10,15,12,56,13.10
2017,10,15,12,57,13.10
2017,10,15,12,58,13.00
2017,10,15,12,59,13.00
2017,10,15,13,00,12.90
2017,10,15,13,01,12.90
2017,10,15,13,02,12.90
2017,10,15,13,03,12.80
2017,10,15,13,04,12.80
2017,10,15,13,05,12.70
2017,10,15,13,06,12.70
2017,10,15,13,07,12.70
2017,10,15,13,08,12.70
2017,10,15,13,09,12.70
2017,10,15,13,10,12.70
2017,10,15,13,11,12.70
2017,10,15,13,12,12.70
2017,10,15,13,13,12.70
2017,10,15,13,14,12.60
2017,10,15,13,15,12.60
2017,10,15,13,16,12.60
2017,10,15,13,17,12.60
2017,10,15,13,18,12.60
2017,10,15,13,19,12.60
2017,10,15,13,20,12.70
2017,10,15,13,21,12.70
2017,10,15,13,22,12.70
2017,10,15,13,23,12.70
2017,10,15,13,24,12.70
2017,10,15,13,25,12.70
2017,10,15,13,26,12.70
2017,10,15,13,27,12.70
2017,10,15,13,28,12.80
2017,10,15,13,29,12.70
2017,10,15,13,30,12.70
2017,10,15,13,31,12.70
2017,10,15,13,32,12.70
2017,10,15,13,33,12.70
2017,10,15,13,34,12.70
2017,10,15,13,35,12.70
2017,10,15,13,36,12.70
2017,10,15,13,37,12.70
2017,10,15,13,38,12.60
2017,10,15,13,39,12.60
2017,10,15,13,40,12.70
2017,10,15,13,41,12.60
2017,10,15,13,42,12.60
2017,10,15,13,43,12.50
2017,10,15,13,44,12.50
2017,10,15,13,45,12.50
2017,10,15,13,46,12.40
2017,10,15,13,47,12.40
2017,10,15,13,48,12.40
2017,10,15,13,49,12.40
2017,10,15,13,50,12.40
2017,10,15,13,51,12.40
2017,10,15,13,52,12.30
2017,10,15,13,53,12.30
2017,10,15,13,54,12.30
2017,10,15,13,55,12.30
2017,10,15,13,56,12.30
2017,10,15,13,57,12.30
2017,10,15,13,58,12.30
2017,10,15,13,59,12.30
2017,10,15,14,00,12.30
2017,10,15,14,01,12.20
2017,10,15,14,02,12.10
2017,10,15,14,03,12.10
2017,10,15,14,04,12.10
2017,10,15,14,05,12.00
2017,10,15,14,06,11.90
2017,10,15,14,07,11.90
2017,10,15,14,08,11.90
2017,10,15,14,09,11.80
2017,10,15,14,10,11.80
2017,10,15,14,11,11.70
2017,10,15,14,12,11.70
2017,10,15,14,13,11.70
2017,10,15,14,14,11.70
2017,10,15,14,15,11.70
2017,10,15,14,16,11.70
2017,10,15,14,17,11.70
2017,10,15,14,18,11.70
2017,10,15,14,19,11.70
2017,10,15,14,20,11.70
2017,10,15,14,21,11.70
2017,10,15,14,22,11.60
2017,10,15,14,23,11.60
2017,10,15,14,24,11.70
2017,10,15,14,25,11.70
2017,10,15,14,26,11.70
2017,10,15,14,27,11.70
2017,10,15,14,28,11.70
2017,10,15,14,29,11.80
2017,10,15,14,30,11.80
2017,10,15,14,31,11.70
2017,10,15,14,32,11.70
2017,10,15,14,33,11.70
2017,10,15,14,34,11.70
2017,10,15,14,35,11.70
2017,10,15,14,36,11.70
2017,10,15,14,37,11.70
2017,10,15,14,38,11.70
2017,10,15,14,39,11.70
2017,10,15,14,40,11.70
2017,10,15,14,41,11.70
2017,10,15,14,42,11.70
2017,10,15,14,43,11.70
2017,10,15,14,44,11.70
2017,10,15,14,45,11.70
2017,10,15,14,46,11.70
2017,10,15,14,47,11.70
2017,10,15,14,48,11.70
2017,10,15,14,49,11.70
2017,10,15,14,50,11.80
2017,10,15,14,51,11.80
2017,10,15,14,52,11.80
2017,10,15,14,53,11.80
2017,10,15,14,54,11.80
2017,10,15,14,55,11.90
2017,10,15,14,56,11.90
2017,10,15,14,57,11.90
2017,10,15,14,58,11.90
2017,10,15,14,59,11.90
2017,10,15,15,00,11.90
2017,10,15,15,01,11.90
2017,10,15,15,02,11.90
2017,10,15,15,03,11.90
2017,10,15,15,04,12.00
2017,10,15,15,05,12.00
2017,10,15,15,06,12.00
2017,10,15,15,07,12.00
2017,10,15,15,08,12.10
2017,10,15,15,09,12.10
2017,10,15,15,10,12.10
2017,10,15,15,11,12.10
2017,10,15,15,12,12.20
2017,10,15,15,13,12.20
2017,10,15,15,14,12.20
2017,10,15,15,15,12.20
2017,10,15,15,16,12.20
2017,10,15,15,17,12.20
2017,10,15,15,18,12.30
2017,10,15,15,19,12.20
2017,10,15,15,20,12.20
2017,10,15,15,21,12.20
2017,10,15,15,22,12.20
2017,10,15,15,23,12.30
2017,10,15,15,24,12.30
2017,10,15,15,25,12.30
2017,10,15,15,26,12.30
2017,10,15,15,27,12.30
2017,10,15,15,28,12.30
2017,10,15,15,29,12.30
2017,10,15,15,30,12.30
2017,10,15,15,31,12.30
2017,10,15,15,32,12.40
2017,10,15,15,33,12.40
2017,10,15,15,34,12.40
2017,10,15,15,35,12.40
2017,10,15,15,36,12.40
2017,10,15,15,37,12.50
2017,10,15,15,38,12.50
2017,10,15,15,39,12.60
2017,10,15,15,40,12.60
2017,10,15,15,41,12.60
2017,10,15,15,42,12.60
2017,10,15,15,43,12.70
2017,10,15,15,44,12.70
2017,10,15,15,45,12.70
2017,10,15,15,46,12.70
2017,10,15,15,47,12.70
2017,10,15,15,48,12.80
2017,10,15,15,49,12.70
2017,10,15,15,50,12.70
2017,10,15,15,51,12.70
2017,10,15,15,52,12.70
2017,10,15,15,53,12.80
2017,10,15,15,54,12.70
2017,10,15,15,55,12.70
2017,10,15,15,56,12.70
2017,10,15,15,57,12.70
2017,10,15,15,58,12.70
2017,10,15,15,59,12.60
2017,10,15,16,00,12.60
2017,10,15,16,01,12.50
2017,10,15,16,02,12.50
2017,10,15,16,03,12.40
2017,10,15,16,04,12.40
2017,10,15,16,05,12.40
2017,10,15,16,06,12.40
2017,10,15,16,07,12.40
2017,10,15,16,08,12.40
2017,10,15,16,09,12.40
2017,10,15,16,10,12.40
2017,10,15,16,11,12.40
2017,10,15,16,12,12.40
2017,10,15,16,13,12.50
2017,10,15,16,14,12.50
2017,10,15,16,15,12.60
2017,10,15,16,16,12.60
2017,10,15,16,17,12.60
2017,10,15,16,18,12.70
2017,10,15,16,19,12.70
2017,10,15,16,20,12.70
2017,10,15,16,21,12.80
2017,10,15,16,22,12.80
2017,10,15,16,23,12.80
2017,10,15,16,24,12.80
2017,10,15,16,25,12.90
2017,10,15,16,26,12.90
2017,10,15,16,27,12.90
2017,10,15,16,28,12.90
2017,10,15,16,29,13.00
2017,10,15,16,30,13.00
2017,10,15,16,31,13.00
2017,10,15,16,32,13.00
2017,10,15,16,33,13.10
2017,10,15,16,34,13.10
2017,10,15,16,35,13.10
2017,10,15,16,36,13.10
2017,10,15,16,37,13.20
2017,10,15,16,38,13.20
2017,10,15,16,39,13.20
2017,10,15,16,40,13.10
2017,10,15,16,41,13.10
2017,10,15,16,42,13.10
2017,10,15,16,43,13.00
2017,10,15,16,44,13.00
2017,10,15,16,45,13.00
2017,10,15,16,46,12.90
2017,10,15,16,47,12.90
2017,10,15,16,48,12.90
2017,10,15,16,49,12.90
2017,10,15,16,50,12.90
2017,10,15,16,51,12.90
2017,10,15,16,52,12.90
2017,10,15,16,53,12.90
2017,10,15,16,54,12.90
2017,10,15,16,55,12.90
2017,10,15,16,56,12.90
2017,10,15,16,57,12.90
2017,10,15,16,58,12.90
2017,10,15,16,59,12.90
2017,10,15,17,00,12.90
2017,10,15,17,01,12.90
2017,10,15,17,02,12.90
2017,10,15,17,03,13.00
2017,10,15,17,04,13.00
2017,10,15,17,05,13.10
2017,10,15,17,06,13.10
2017,10,15,17,07,13.10
2017,10,15,17,08,13.20
2017,10,15,17,09,13.20
2017,10,15,17,10,13.20
2017,10,15,17,11,13.20
2017,10,15,17,12,13.20
2017,10,15,17,13,13.20
2017,10,15,17,14,13.20
2017,10,15,17,15,13.20
2017,10,15,17,16,13.10
2017,10,15,17,17,13.10
2017,10,15,17,18,13.10
2017,10,15,17,19,13.00
2017,10,15,17,20,13.00
2017,10,15,17,21,12.90
2017,10,15,17,22,12.90
2017,10,15,17,23,12.80
2017,10,15,17,24,12.80
2017,10,15,17,25,12.70
2017,10,15,17,26,12.70
2017,10,15,17,27,12.70
2017,10,15,17,28,12.70
2017,10,15,17,29,12.70
2017,10,15,17,30,12.70
2017,10,15,17,31,12.70
2017,10,15,17,32,12.70
2017,10,15,17,33,12.70
2017,10,15,17,34,12.60
2017,10,15,17,35,12.60